When you browse on this site, cookies collect data to enhance your experience and personalize the content and advertising you see.
Visit our Privacy Policy to learn more. By continuing to use the site, you agree to this use of cookies and data.
  • In United Kingdom
  • List of Countries
  • For 7 days
  • Water Temperature
  • Satellite Maps
  • Weather Map
  • Weather Widgets
  • user-avatar
    Login

    Hourly Weather Punta Gorda

    Today, 19 March, Tuesday

    Time Temperature Precipitation Wind Pressure Humidity
    00:00 +22°C° 0 mm 0 mps 761 mmHg 87%
    01:00 +22°C° 0 mm 0 mps 761 mmHg 88%
    02:00 +24°C° 0 mm 1 mps 761 mmHg 88%
    03:00 +24°C° 0 mm 1 mps 760 mmHg 89%
    04:00 +24°C° 0.2 mm 1 mps 761 mmHg 90%
    05:00 +24°C° 0.2 mm 1 mps 761 mmHg 92%
    06:00 +24°C° 0.2 mm 1 mps 761 mmHg 93%
    07:00 +25°C° 0.1 mm 1 mps 761 mmHg 91%
    08:00 +25°C° 0.1 mm 1 mps 762 mmHg 88%
    09:00 +26°C° 0.1 mm 1 mps 762 mmHg 86%
    10:00 +28°C° 0.1 mm 2 mps 762 mmHg 74%
    11:00 +30°C° 0.1 mm 2 mps 762 mmHg 63%
    12:00 +34°C° 0.1 mm 2 mps 761 mmHg 52%
    13:00 +33°C° 0.1 mm 1 mps 760 mmHg 49%
    14:00 +34°C° 0.1 mm 1 mps 759 mmHg 47%
    15:00 +35°C° 0.1 mm 1 mps 758 mmHg 44%
    16:00 +33°C° 0 mm 1 mps 758 mmHg 51%
    17:00 +31°C° 0 mm 2 mps 759 mmHg 58%
    18:00 +29°C° 0 mm 2 mps 759 mmHg 65%
    19:00 +28°C° 0.3 mm 2 mps 759 mmHg 73%
    20:00 +26°C° 0.3 mm 2 mps 760 mmHg 81%
    21:00 +25°C° 0.3 mm 2 mps 761 mmHg 89%
    22:00 +24°C° 0 mm 2 mps 761 mmHg 89%
    23:00 +24°C° 0 mm 1 mps 761 mmHg 89%

    Tomorrow, 20 March, Wednesday

    Time Temperature Precipitation Wind Pressure Humidity
    00:00 +24°C° 0 mm 1 mps 761 mmHg 89%
    01:00 +24°C° 0.2 mm 1 mps 761 mmHg 90%
    02:00 +24°C° 0.2 mm 2 mps 761 mmHg 90%
    03:00 +24°C° 0.2 mm 2 mps 760 mmHg 91%
    04:00 +24°C° 0.2 mm 2 mps 761 mmHg 91%
    05:00 +24°C° 0.2 mm 3 mps 761 mmHg 90%
    06:00 +24°C° 0.2 mm 3 mps 761 mmHg 90%
    07:00 +26°C° 0.1 mm 3 mps 761 mmHg 80%
    08:00 +28°C° 0.1 mm 3 mps 762 mmHg 70%
    09:00 +30°C° 0.1 mm 3 mps 762 mmHg 60%
    10:00 +31°C° 0.2 mm 2 mps 762 mmHg 56%
    11:00 +34°C° 0.2 mm 2 mps 762 mmHg 52%
    12:00 +34°C° 0.2 mm 1 mps 761 mmHg 48%
    13:00 +34°C° 0.8 mm 2 mps 760 mmHg 55%
    14:00 +33°C° 0.8 mm 3 mps 760 mmHg 62%
    15:00 +31°C° 0.8 mm 3 mps 759 mmHg 69%
    16:00 +29°C° 0.6 mm 3 mps 759 mmHg 75%
    17:00 +28°C° 0.6 mm 3 mps 759 mmHg 80%
    18:00 +26°C° 0.6 mm 3 mps 760 mmHg 86%
    19:00 +26°C° 0.7 mm 3 mps 760 mmHg 87%
    20:00 +25°C° 0.7 mm 2 mps 761 mmHg 89%
    21:00 +25°C° 0.7 mm 2 mps 762 mmHg 91%
    22:00 +24°C° 0.7 mm 1 mps 762 mmHg 91%
    23:00 +24°C° 0.7 mm 1 mps 762 mmHg 91%

    Day after tomorrow, 21 March, Thursday

    Time Temperature Precipitation Wind Pressure Humidity
    00:00 +24°C° 0.7 mm 1 mps 762 mmHg 91%
    01:00 +24°C° 0.3 mm 1 mps 761 mmHg 90%
    02:00 +24°C° 0.3 mm 1 mps 761 mmHg 90%
    03:00 +24°C° 0.3 mm 1 mps 761 mmHg 90%
    04:00 +24°C° 0.2 mm 1 mps 761 mmHg 90%
    05:00 +24°C° 0.2 mm 1 mps 761 mmHg 90%
    06:00 +23°C° 0.2 mm 1 mps 762 mmHg 90%
    07:00 +26°C° 0.2 mm 1 mps 762 mmHg 79%
    08:00 +29°C° 0.2 mm 1 mps 763 mmHg 67%
    09:00 +31°C° 0.2 mm 1 mps 763 mmHg 56%
    10:00 +32°C° 0.3 mm 1 mps 763 mmHg 56%
    11:00 +32°C° 0.3 mm 2 mps 762 mmHg 57%
    12:00 +32°C° 0.3 mm 2 mps 762 mmHg 58%
    13:00 +31°C° 1.3 mm 2 mps 761 mmHg 68%
    14:00 +29°C° 1.3 mm 3 mps 760 mmHg 78%
    15:00 +28°C° 1.3 mm 3 mps 759 mmHg 88%
    16:00 +27°C° 0.8 mm 3 mps 760 mmHg 89%
    17:00 +26°C° 0.8 mm 3 mps 760 mmHg 91%
    18:00 +26°C° 0.8 mm 3 mps 761 mmHg 92%
    19:00 +25°C° 0.6 mm 3 mps 761 mmHg 93%
    20:00 +25°C° 0.6 mm 2 mps 762 mmHg 93%
    21:00 +24°C° 0.6 mm 2 mps 763 mmHg 94%
    22:00 +24°C° 0.7 mm 2 mps 763 mmHg 94%
    23:00 +24°C° 0.7 mm 2 mps 763 mmHg 94%

    22 March, Friday

    Time Temperature Precipitation Wind Pressure Humidity
    00:00 +24°C° 0.7 mm 1 mps 763 mmHg 94%
    01:00 +23°C° 0.5 mm 1 mps 762 mmHg 94%
    02:00 +23°C° 0.5 mm 1 mps 762 mmHg 94%
    03:00 +23°C° 0.5 mm 1 mps 761 mmHg 94%
    04:00 +23°C° 0.3 mm 1 mps 762 mmHg 94%
    05:00 +23°C° 0.3 mm 1 mps 762 mmHg 94%
    06:00 +22°C° 0.3 mm 1 mps 763 mmHg 94%
    07:00 +25°C° 0.3 mm 1 mps 763 mmHg 85%
    08:00 +27°C° 0.3 mm 1 mps 763 mmHg 75%
    09:00 +29°C° 0.3 mm 1 mps 764 mmHg 66%
    10:00 +29°C° 0.5 mm 2 mps 763 mmHg 66%
    11:00 +30°C° 0.5 mm 2 mps 763 mmHg 66%
    12:00 +30°C° 0.5 mm 3 mps 762 mmHg 67%
    13:00 +29°C° 0.5 mm 3 mps 761 mmHg 70%
    14:00 +29°C° 0.5 mm 4 mps 760 mmHg 73%
    15:00 +28°C° 0.5 mm 4 mps 760 mmHg 76%
    16:00 +28°C° 0.1 mm 4 mps 760 mmHg 76%
    17:00 +27°C° 0.1 mm 4 mps 761 mmHg 75%
    18:00 +27°C° 0.1 mm 3 mps 761 mmHg 75%
    19:00 +26°C° 0.1 mm 3 mps 762 mmHg 78%
    20:00 +25°C° 0.1 mm 3 mps 762 mmHg 81%
    21:00 +25°C° 0.1 mm 2 mps 763 mmHg 84%
    22:00 +24°C° 0.2 mm 2 mps 763 mmHg 86%
    23:00 +24°C° 0.2 mm 2 mps 762 mmHg 87%

    23 March, Saturday

    Time Temperature Precipitation Wind Pressure Humidity
    00:00 +24°C° 0.2 mm 1 mps 762 mmHg 88%
    01:00 +24°C° 0.2 mm 1 mps 762 mmHg 90%
    02:00 +23°C° 0.2 mm 1 mps 761 mmHg 92%
    03:00 +23°C° 0.2 mm 1 mps 761 mmHg 94%
    04:00 +23°C° 0.1 mm 1 mps 761 mmHg 94%
    05:00 +23°C° 0.1 mm 1 mps 761 mmHg 95%
    06:00 +23°C° 0.1 mm 1 mps 762 mmHg 96%
    07:00 +25°C° 0.1 mm 1 mps 762 mmHg 85%
    08:00 +27°C° 0.1 mm 1 mps 762 mmHg 74%
    09:00 +30°C° 0.1 mm 1 mps 763 mmHg 63%
    10:00 +31°C° 0 mm 1 mps 762 mmHg 58%
    11:00 +32°C° 0 mm 2 mps 761 mmHg 53%
    12:00 +34°C° 0 mm 3 mps 761 mmHg 48%
    13:00 +34°C° 0 mm 3 mps 760 mmHg 49%
    14:00 +34°C° 0 mm 4 mps 759 mmHg 49%
    15:00 +33°C° 0 mm 5 mps 758 mmHg 50%
    16:00 +32°C° 0 mm 5 mps 759 mmHg 56%
    17:00 +30°C° 0 mm 5 mps 759 mmHg 63%
    18:00 +28°C° 0 mm 5 mps 759 mmHg 70%
    19:00 +27°C° 0 mm 4 mps 760 mmHg 75%
    20:00 +27°C° 0 mm 4 mps 761 mmHg 79%
    21:00 +26°C° 0 mm 4 mps 761 mmHg 84%
    22:00 +25°C° 0.1 mm 3 mps 761 mmHg 86%
    23:00 +25°C° 0.1 mm 3 mps 761 mmHg 89%

    24 March, Sunday

    Time Temperature Precipitation Wind Pressure Humidity
    00:00 +24°C° 0.1 mm 3 mps 761 mmHg 91%
    01:00 +24°C° 0.1 mm 2 mps 761 mmHg 92%
    02:00 +24°C° 0.1 mm 2 mps 760 mmHg 93%
    03:00 +24°C° 0.1 mm 2 mps 760 mmHg 94%
    04:00 +24°C° 0.1 mm 1 mps 760 mmHg 93%
    05:00 +24°C° 0.1 mm 1 mps 761 mmHg 93%
    06:00 +24°C° 0.1 mm 1 mps 761 mmHg 93%
    07:00 +25°C° 0.1 mm 1 mps 761 mmHg 86%
    08:00 +27°C° 0.1 mm 1 mps 761 mmHg 79%
    09:00 +29°C° 0.1 mm 1 mps 761 mmHg 72%
    10:00 +31°C° 0 mm 2 mps 761 mmHg 64%
    11:00 +32°C° 0 mm 2 mps 760 mmHg 56%
    12:00 +35°C° 0 mm 3 mps 759 mmHg 48%
    13:00 +35°C° 0 mm 3 mps 758 mmHg 48%
    14:00 +35°C° 0 mm 4 mps 758 mmHg 48%
    15:00 +35°C° 0 mm 4 mps 757 mmHg 48%
    16:00 +33°C° 0 mm 4 mps 757 mmHg 55%
    17:00 +32°C° 0 mm 4 mps 757 mmHg 62%
    18:00 +29°C° 0 mm 4 mps 757 mmHg 68%
    19:00 +28°C° 0 mm 4 mps 758 mmHg 75%
    20:00 +27°C° 0 mm 4 mps 759 mmHg 81%
    21:00 +26°C° 0 mm 3 mps 759 mmHg 87%
    22:00 +26°C° 0.1 mm 3 mps 759 mmHg 89%
    23:00 +25°C° 0.1 mm 2 mps 759 mmHg 92%
    Show more